Weather History for Batesville, AR

Change the Weather History Date:

Sunday, September 2, 2012

  Actual Average Record
Temperature  
Mean Temperature 83 °F -  
Max Temperature 95 °F 89 °F 102 °F (2000)
Min Temperature 71 °F 65 °F 47 °F (1967)
Cooling Degree Days 18    
Growing Degree Days 33 (Base 50)    
Moisture  
Dew Point 68 °F    
Average Humidity 67    
Maximum Humidity 94    
Minimum Humidity 34    
Precipitation  
Precipitation 0.00 in - - ()
Sea Level Pressure  
Sea Level Pressure 29.89 in    
Wind  
Wind Speed 6 mph (West)    
Max Wind Speed 14 mph    
Max Gust Speed 20 mph    
Visibility 10 miles    
Events      
Averages and records for this station are not official NWS values.
T = Trace of Precipitation, MM = Missing Value Source: NWS Daily Summary

Daily Weather History Graph

Daily Weather History Graph

Search for Another Location

Airport:

Trip Planner

Search our weather history database for the weather conditions in past years. The results will help you decide how hot, cold, wet, or windy it might be!

Date:

Astronomy

Sep. 02, 2012 Rise Set
Actual Time 6:39 AM CDT 7:31 PM CDT
Civil Twilight 6:13 AM CDT 7:57 PM CDT
Nautical Twilight 5:42 AM CDT 8:28 PM CDT
Astronomical Twilight 5:11 AM CDT 9:00 PM CDT
Moon 8:27 PM CDT (9/2) 8:41 AM CDT (9/2)
Length of Visible Light 13h 44m
Length of Day
12h 52m
Waning Gibbous, 95% of the Moon is Illuminated
Sep 2
Waning Gibbous
Sep 8
Last Quarter
Sep 15
New
Sep 22
First Quarter
Sep 29
Full

Hourly Weather History & Observations

Time (CDT) Temp. Heat Index Dew Point Humidity Pressure Visibility Wind Dir Wind Speed Gust Speed Precip Events Conditions
12:15 AM 75.2 °F - 73.4 °F 94% 29.91 in 10.0 mi West 5.8 mph - N/A   Scattered Clouds
12:35 AM 75.2 °F - 73.4 °F 94% 29.91 in 10.0 mi WNW 4.6 mph - N/A   Mostly Cloudy
12:55 AM 75.2 °F - 73.4 °F 94% 29.91 in 10.0 mi West 5.8 mph - N/A   Mostly Cloudy
1:15 AM 75.2 °F - 73.4 °F 94% 29.91 in 10.0 mi West 8.1 mph - N/A   Overcast
1:35 AM 75.2 °F - 71.6 °F 89% 29.90 in 10.0 mi SSW 4.6 mph - N/A   Overcast
1:55 AM 75.2 °F - 73.4 °F 94% 29.90 in 10.0 mi WSW 5.8 mph - N/A   Overcast
2:15 AM 75.2 °F - 73.4 °F 94% 29.89 in 10.0 mi WSW 5.8 mph - N/A   Mostly Cloudy
2:35 AM 75.2 °F - 71.6 °F 89% 29.89 in 10.0 mi WSW 6.9 mph - N/A   Clear
2:55 AM 75.2 °F - 71.6 °F 89% 29.89 in 10.0 mi WSW 8.1 mph - N/A   Clear
3:15 AM 75.2 °F - 71.6 °F 89% 29.89 in 10.0 mi SW 8.1 mph - N/A   Clear
3:35 AM 75.2 °F - 71.6 °F 89% 29.89 in 10.0 mi SW 6.9 mph - N/A   Clear
3:55 AM 75.2 °F - 71.6 °F 89% 29.89 in 10.0 mi SW 6.9 mph - N/A   Clear
4:15 AM 73.4 °F - 71.6 °F 94% 29.89 in 10.0 mi West 4.6 mph - N/A   Clear
4:35 AM 73.4 °F - 71.6 °F 94% 29.89 in 10.0 mi WSW 5.8 mph - N/A   Clear
4:55 AM 73.4 °F - 71.6 °F 94% 29.90 in 10.0 mi WSW 3.5 mph - N/A   Clear
5:15 AM 73.4 °F - 71.6 °F 94% 29.90 in 10.0 mi WNW 4.6 mph - N/A   Clear
5:35 AM 73.4 °F - 69.8 °F 88% 29.90 in 10.0 mi Calm Calm - N/A   Clear
5:55 AM 73.4 °F - 69.8 °F 88% 29.90 in 10.0 mi WSW 3.5 mph - N/A   Clear
6:15 AM 73.4 °F - 69.8 °F 88% 29.91 in 10.0 mi WSW 3.5 mph - N/A   Mostly Cloudy
6:35 AM 73.4 °F - 71.6 °F 94% 29.91 in 10.0 mi Calm Calm - N/A   Mostly Cloudy
6:55 AM 73.4 °F - 69.8 °F 88% 29.92 in 10.0 mi West 3.5 mph - N/A   Partly Cloudy
7:15 AM 73.4 °F - 69.8 °F 88% 29.93 in 10.0 mi Calm Calm - N/A   Clear
7:35 AM 71.6 °F - 69.8 °F 94% 29.93 in 10.0 mi Calm Calm - N/A   Clear
7:55 AM 73.4 °F - 69.8 °F 88% 29.94 in 10.0 mi WNW 3.5 mph - N/A   Clear
8:15 AM 73.4 °F - 69.8 °F 88% 29.94 in 10.0 mi WNW 3.5 mph - N/A   Clear
8:35 AM 75.2 °F - 71.6 °F 89% 29.93 in 10.0 mi WNW 8.1 mph - N/A   Clear
8:55 AM 77.0 °F - 69.8 °F 78% 29.93 in 10.0 mi WNW 8.1 mph - N/A   Clear
9:15 AM 77.0 °F - 69.8 °F 78% 29.93 in 10.0 mi West 8.1 mph - N/A   Clear
9:35 AM 78.8 °F - 69.8 °F 74% 29.93 in 10.0 mi West 6.9 mph - N/A   Clear
9:55 AM 80.6 °F 84.6 °F 71.6 °F 74% 29.93 in 10.0 mi WNW 5.8 mph - N/A   Clear
10:15 AM 82.4 °F 86.3 °F 69.8 °F 66% 29.93 in 10.0 mi West 5.8 mph - N/A   Clear
10:35 AM 82.4 °F 86.3 °F 69.8 °F 66% 29.93 in 10.0 mi WNW 8.1 mph - N/A   Clear
10:55 AM 84.2 °F 88.4 °F 69.8 °F 62% 29.93 in 10.0 mi WNW 8.1 mph - N/A   Clear
11:15 AM 84.2 °F 88.4 °F 69.8 °F 62% 29.93 in 10.0 mi West 9.2 mph - N/A   Clear
11:35 AM 86.0 °F 90.4 °F 69.8 °F 58% 29.93 in 10.0 mi WNW 9.2 mph 16.1 mph N/A   Clear
11:55 AM 87.8 °F 92.6 °F 69.8 °F 55% 29.93 in 10.0 mi West 9.2 mph - N/A   Clear
12:15 PM 89.6 °F 94.7 °F 69.8 °F 52% 29.93 in 10.0 mi West 10.4 mph - N/A   Clear
12:35 PM 89.6 °F 93.4 °F 68.0 °F 49% 29.92 in 10.0 mi West 13.8 mph 19.6 mph N/A   Clear
12:55 PM 91.4 °F 95.4 °F 68.0 °F 46% 29.91 in 10.0 mi West 10.4 mph - N/A   Clear
1:15 PM 91.4 °F 96.8 °F 69.8 °F 49% 29.90 in 10.0 mi West 8.1 mph - N/A   Clear
1:35 PM 91.4 °F 94.0 °F 66.2 °F 43% 29.90 in 10.0 mi WNW 9.2 mph 16.1 mph N/A   Clear
1:55 PM 93.2 °F 96.2 °F 66.2 °F 41% 29.89 in 10.0 mi West 12.7 mph 18.4 mph N/A   Clear
2:15 PM 93.2 °F 96.2 °F 66.2 °F 41% 29.89 in 10.0 mi West 9.2 mph - N/A   Clear
2:35 PM 93.2 °F 94.9 °F 64.4 °F 38% 29.88 in 10.0 mi WNW 9.2 mph - N/A   Clear
2:55 PM 93.2 °F 94.9 °F 64.4 °F 38% 29.87 in 10.0 mi WNW 8.1 mph - N/A   Clear
3:15 PM 95.0 °F 97.0 °F 64.4 °F 36% 29.86 in 10.0 mi West 11.5 mph - N/A   Clear
3:35 PM 95.0 °F 97.0 °F 64.4 °F 36% 29.86 in 10.0 mi WNW 12.7 mph 18.4 mph N/A   Clear
3:55 PM 95.0 °F 96.0 °F 62.6 °F 34% 29.86 in 10.0 mi WNW 9.2 mph - N/A   Clear
4:15 PM 95.0 °F 97.0 °F 64.4 °F 36% 29.86 in 10.0 mi West 12.7 mph - N/A   Clear
4:35 PM 95.0 °F 96.0 °F 62.6 °F 34% 29.86 in 10.0 mi West 12.7 mph 17.3 mph N/A   Clear
4:55 PM 95.0 °F 96.0 °F 62.6 °F 34% 29.85 in 10.0 mi West 8.1 mph - N/A   Clear
5:15 PM 95.0 °F 96.0 °F 62.6 °F 34% 29.85 in 10.0 mi WNW 6.9 mph - N/A   Clear
5:35 PM 95.0 °F 96.0 °F 62.6 °F 34% 29.85 in 10.0 mi WNW 8.1 mph - N/A   Clear
5:55 PM 93.2 °F 94.1 °F 62.6 °F 36% 29.85 in 10.0 mi West 5.8 mph - N/A   Clear
6:15 PM 93.2 °F 94.1 °F 62.6 °F 36% 29.85 in 10.0 mi WNW 6.9 mph - N/A   Clear
6:35 PM 91.4 °F 93.2 °F 64.4 °F 41% 29.85 in 10.0 mi Calm Calm - N/A   Clear
6:55 PM 91.4 °F 93.2 °F 64.4 °F 41% 29.85 in 10.0 mi Calm Calm - N/A   Clear
7:15 PM 89.6 °F 92.2 °F 66.2 °F 46% 29.85 in 10.0 mi Calm Calm - N/A   Clear
7:35 PM 87.8 °F 90.4 °F 66.2 °F 49% 29.85 in 10.0 mi North 3.5 mph - N/A   Clear
7:55 PM 86.0 °F 88.2 °F 66.2 °F 51% 29.85 in 10.0 mi North 3.5 mph - N/A   Clear
8:15 PM 84.2 °F 86.6 °F 66.2 °F 55% 29.85 in 10.0 mi Calm Calm - N/A   Clear
8:35 PM 82.4 °F 84.6 °F 66.2 °F 58% 29.86 in 10.0 mi NW 3.5 mph - N/A   Clear
8:55 PM 80.6 °F 82.3 °F 64.4 °F 58% 29.86 in 10.0 mi WNW 3.5 mph - N/A   Clear
9:15 PM 80.6 °F 82.7 °F 66.2 °F 61% 29.87 in 10.0 mi West 3.5 mph - N/A   Clear
9:35 PM 78.8 °F - 66.2 °F 65% 29.88 in 10.0 mi Calm Calm - N/A   Clear
9:55 PM 78.8 °F - 66.2 °F 65% 29.88 in 10.0 mi Calm Calm - N/A   Clear
10:15 PM 78.8 °F - 66.2 °F 65% 29.88 in 10.0 mi Calm Calm - N/A   Clear
10:35 PM 77.0 °F - 66.2 °F 69% 29.88 in 10.0 mi Calm Calm - N/A   Clear
10:55 PM 77.0 °F - 66.2 °F 69% 29.89 in 10.0 mi Calm Calm - N/A   Clear
11:15 PM 75.2 °F - 68.0 °F 78% 29.90 in 10.0 mi Calm Calm - N/A   Clear
11:35 PM 75.2 °F - 68.0 °F 78% 29.90 in 10.0 mi Calm Calm - N/A   Clear
11:55 PM 73.4 °F - 68.0 °F 83% 29.90 in 10.0 mi Calm Calm - N/A   Clear